Location: North Evanston
(42.0634°N, 87.6976°W)
Time: 10:56:07
(UTC+00:00)

Vanguard 2 Rocket - Pass Details

Date: 19 May 2026
Orbit: 553 x 3286 km, 32.9° (Epoch: 11 June)

Event Time Altitude Azimuth Distance (km) Brightness Sun altitude
Rises 19:48:47 0° 273° (W) 5,963 11.5 56.1°
Reaches altitude 10° 19:52:22 10° 269° (W) 5,253 11.4 55.6°
Maximum altitude 20:08:22 52° 200° (SSW) 3,702 11.4 52.9°
Drops below altitude 10° 20:27:08 10° 131° (SE) 6,050 11.0 49.8°
Sets 20:31:40 0° 127° (SE) 6,884 11.2 49.0°
